Regional Weather Roundup
Issued by NWS Wakefield, VA

Home | Current Version | Previous Version | Graphics & Text | Print | Product List | Glossary On
Versions: 1 2 3 4 5 6 7 8 9 10 11 12 13 14 15 16 17 18 19 20 21 22 23 24 25 26 27 28 29 30 31 32 33 34 35 36 37 38 39 40 41 42 43 44 45 46 47 48 49 50
000
ASUS41 KAKQ 032110
RWRAKQ

REGIONAL WEATHER ROUNDUP
NATIONAL WEATHER SERVICE WAKEFIELD VA
400 PM EST TUE MAR 03 2015

Note: "fair" indicates few or no clouds below 12,000 feet with no
significant weather and/or obstructions to visibility. * = Denotes
station may not report precipitation (e.g., rain,snow,etc.),
thunder or fog.

VAZ042-051-052>054-056-032200-
NORTHERN VIRGINIA

CITY           SKY/WX    TMP DP  RH WIND       PRES   REMARKS
WASH NATIONAL  LGT RAIN  34  22  61 S10       30.18F
DULLES         CLOUDY    33  17  51 S12       30.13F WCI  24
FORT BELVOIR   LGT RAIN  32  23  69 SE5       30.16F
QUANTICO       CLOUDY    34  23  64 S14       30.19F WCI  25
FREDERICKSBRG* CLOUDY    37  20  52 S7        30.17F
STAFFORD*      CLOUDY    34  17  49 S8        30.21F
WARRENTON      CLOUDY    36  24  61 S6        30.14F
CULPEPER*      CLOUDY    36  18  48 S8        30.15F
MANASSAS*      CLOUDY    36  19  51 S12       30.16F
LEESBURG*      CLOUDY    34  21  60 S13G18    30.13F WCI  25
WINCHESTER     DRIZZLE   34  18  51 S16       30.05F WCI  23
FRONT ROYAL*   CLOUDY    34  21  60 S5        30.05F
LURAY*         CLOUDY    37  28  70 SW16G24   30.07F
$$

VAZ048-049-060>072-079>083-032200-
CENTRAL AND SOUTH CENTRAL VIRGINIA

CITY           SKY/WX    TMP DP  RH WIND       PRES   REMARKS
RICHMOND       CLOUDY    37  21  52 S5        30.21F
CHESTERFIELD*  CLOUDY    37  14  38 S6        30.22F
PETERSBURG*    CLOUDY    39  22  50 CALM      30.21F
HANOVER        CLOUDY    37  20  50 SW7       30.22F
TAPPAHANNOCK*  CLOUDY    36  19  50 S3        30.22F
QUINTON*       CLOUDY    37  22  56 SW5       30.21F
CHARLOTTSVILLE CLOUDY    35  17  47 S10       30.15F
GORDONSVILLE*  CLOUDY    34  18  52 S9        30.15F
ORANGE*        CLOUDY    36  19  51 S6        30.17F
LOUISA*        CLOUDY    36  18  48 S5        30.17F
BUMPASS*       CLOUDY    35  17  49 S6        30.17F
FARMVILLE*     CLOUDY    40  19  44 SW5       30.19F
CREWE*         CLOUDY    38  17  41 S3        30.20F
FORT PICKETT*  CLOUDY    37  22  53 S6        30.20F
CHASE CITY*    CLOUDY    38  29  71 CALM      30.22F
CLARKSVILLE*   CLOUDY    34  32  93 SW5       30.22F
SOUTH HILL*    CLOUDY    34  30  84 CALM      30.28F
LAWRENCEVILLE* CLOUDY    37  27  69 SW8       30.23R
EMPORIA*       DRIZZLE   37  28  70 SE3       30.23F
$$

VAZ088>098-032200-
SOUTHEAST VIRGINIA

CITY           SKY/WX    TMP DP  RH WIND       PRES   REMARKS
NORFOLK        CLOUDY    41  31  67 S6        30.21F
VIRGINIA BEACH CLOUDY    42  30  62 S7        30.20F
NORFOLK NAVAL  CLOUDY    42  30  62 E3        30.21F
WEST POINT*    CLOUDY    38  25  59 SE5       30.22F
SALUDA*        CLOUDY    35  26  71 S6        30.21F
NEWPORT NEWS   CLOUDY    41  28  60 CALM      30.21F
LANGLEY AFB    CLOUDY    37  28  71 SE1       30.21F
FORT EUSTIS    CLOUDY    37  29  74 S6        30.18F
WILLIAMSBURG*  CLOUDY    39  28  65 S5        30.22F
HR EXEC AP*    CLOUDY    43  30  61 S8        30.23F
FRANKLIN*      CLOUDY    41  31  67 CALM      30.22F
WAKEFIELD      CLOUDY    40  26  57 S3        30.21F
$$

VAZ020-022-025-037-045-032200-
WEST CENTRAL AND SOUTHWEST VIRGINIA

CITY           SKY/WX    TMP DP  RH WIND       PRES   REMARKS
STAUNTON*      CLOUDY    35  24  63 S8        30.11F
WAYNESBORO*    CLOUDY    34  23  64 CALM      30.09F
HOT SPRINGS VA FOG       35  35 100 SW10G18   29.98F VSB<1/4
LYNCHBURG      CLOUDY    36  24  62 S8        30.18F
DANVILLE       CLOUDY    35  32  88 VRB3      30.22F FOG
SOUTH BOSTON*  CLOUDY    36  30  79 S8        30.22F
MARTINSVILLE   CLOUDY    41  34  78 S3        30.20F
ROANOKE        CLOUDY    39  28  64 SE6       30.17F
BLACKSBURG     CLOUDY    35  31  85 CALM      30.14F
DUBLIN*        CLOUDY    38  37  97 NE5       30.10F
MARION*        CLOUDY    42  36  79 E5        30.09F
HILLSVILLE*    CLOUDY    40  37  89 S9        30.08F
RICHLANDS*     CLOUDY    49  46  88 W8        30.01F
WISE*          FOG       45  45 100 S8        30.01F VSB<1/4
ABINGDON*      CLOUDY    46  42  85 E5        30.05F
$$

MDZ021>025-VAZ099-100-032200-
SOUTHERN MARYLAND AND THE DELMARVA PENINSULA

CITY           SKY/WX    TMP DP  RH WIND       PRES   REMARKS
PATUXENT RIVER CLOUDY    33  25  72 VRB6      30.21F
BAY BRIDGE APT RAIN      32  28  86 CALM      30.20F
LEONARDTOWN    CLOUDY    32  25  74 SE3       30.21F
DOVER          FRZ RAIN  30  30 100 SE8       30.20F
GEORGETOWN     LGT RAIN  33  29  85 SE5       30.21F FOG
EASTON         CLOUDY    34  30  86 S5        30.24F FOG
CAMBRIDGE      CLOUDY    36  32  87 CALM      30.20F
SALISBURY      LGT RAIN  37  29  72 SE5       30.20F
OCEAN CITY     LGT RAIN  33  28  81 SE3       30.22F
WALLOPS ISLAND CLOUDY    35  29  78 SE5       30.21F
ACCOMACK*      CLOUDY    36  28  75 SE5       30.20F
$$

NCZ012>017-030>032-032200-
NORTH CENTRAL AND EASTERN NORTH CAROLINA

CITY           SKY/WX    TMP DP  RH WIND       PRES   REMARKS
ROANOKE RAPIDS CLOUDY    37  30  75 CALM      30.22F
RALEIGH        DRIZZLE   36  32  85 CALM      30.23F FOG
ELIZABETH CITY CLOUDY    43  33  68 SE3       30.24F
AHOSKIE*       CLOUDY    41  32  70 CALM      30.22F
EDENTON*       CLOUDY    42  33  70 E6        30.23F
CURRITUCK*     CLOUDY    42  31  64 CALM      30.24F
KILL DEVIL HLS CLOUDY    41  35  79 NE3       30.22F
MANTEO         CLOUDY    45  36  70 E5        30.24F
CAPE HATTERAS  CLOUDY    50  42  74 E6        30.23F
TARBORO*       CLOUDY    41  33  71 SE3       30.24F
GOLDSBORO      CLOUDY    39  39 100 CALM      30.20F FOG
WASHINGTON     CLOUDY    44  36  74 SE5       30.22F
GREENVILLE     CLOUDY    41  36  81 CALM      30.23F
NEW BERN       CLOUDY    47  38  71 SE5       30.23F
WILMINGTON     CLOUDY    47  42  83 NE7       30.21F HAZE
$$

VAZ048-032200-
ELSEWHERE

CITY           SKY/WX    TMP DP  RH WIND       PRES   REMARKS
HARRISBURG PA  FRZ RAIN  28  22  78 SE9       30.11F
BALTIMORE      FRZ RAIN  29  24  82 SE7       30.16F FOG
ANNAPOLIS      FRZ RAIN  31  25  78 S10       30.20F WCI  22
ANDREWS AFB    DRIZZLE   32  23  69 SE9       30.16F
PHILADELPHIA   FRZ RAIN  30  24  78 S7        30.22F
HENDERSON NC   CLOUDY    36  27  71 CALM      30.23R HAZE
GREENSBORO     DRIZZLE   37  35  92 S5        30.19F FOG
ROCKY MOUNT    LGT RAIN  39  35  86 CALM      30.22F FOG
$$

VAZ100-032200-
MARINE

STATION/POSITION TIME  TEMP    WIND        PRES    WAVE   SWELL
                       AIR SEA DIR/SP/G            HT/PER HT/PER
                 (UTC) (F)     (DEG/KT/KT) (MB)    (FT/S) (FT/S)
BRANDYWINE LGT   2100   30 31  130/  8/  8 1023.5F
CAPE MAY NJ      2100   32 34  100/  5/  6 1023.4F
LEWES DE         2100   32 30  100/  4/  5 1023.4F
15NM E FENWICK I 2100   35 35              1023.3F   2/ 4
OCEAN-CITY-INLET 2100   33 34   90/  4/  5 1023.1F
WACHAPREAGUE VA  2100   35 35   90/  4/  4 1022.9F
THOMAS POINT MD  2100   31 32  170/ 14/ 15 1023.4F
COVE POINT MD    2100   30     200/  6/  7 1023.2R
SOLOMONS ISLAND  2100      33                N/A
BISHOPS HEAD MD  2100   33 33  170/  8/  9 1022.5S
CAMBRIDGE MD     2100   33 32  150/  3/  6 1023.0R
LEWISETTA VA     2100           CALM  /  2   N/A
RAPPAHANNOCK LGT 2100          190/  4/  4 1023.4F
STINGRAY PT      2100   33     180/  6/ 10   N/A
YORK RVR RNG VA  2100   34     180/  5/  5 1022.4F
YORKTOWN VA      2100   37 34  150/  2/  4 1022.8F
DOMINION TERM VA 2100   35      20/  2/  3 1023.2F
KIPTOPEKE VA     2100      38  220/  5/  5   N/A
CHES BAY BRIDGE  2100   34 34  100/  2/  5 1023.0S
CAPE HENRY VA    2100   38     160/  5/  7 1021.6F
CHESAPEAKE LGHT  2000   36      90/  8/  8 1025.1F
WILLOUBY STN VA  2100           80/  5/  5   N/A
S CRANEY ISL VA  2100          160/  5/  8 1023.0F
CAPE HENRY BUOY  2100      35                N/A     3/ 5
1ST LANDING BUOY 2100   34     110/  4/  4 1022.8F
OFFSHORE WE BUOY 2100      36                N/A     3/ 5   2/ 8
64NM E OF VA BCH 2100   53 61  140/ 10/ 12 1023.4F   3/ 6   3/ 6
DUCK PIER NC     2100   37 35   CALM  /  1 1023.0F
44100 DUCK FRF   2100      37                N/A     3/ 6
44056 DUCK FRF   2100      35                N/A     3/ 6
OREGON INLET NC  2100   39 39   40/  5/  7 1023.7F
HATTERAS NC      2100   45 43   60/  5/  8 1023.9F
CAPE LOOKOUT NC  2000   46      20/  8/ 10 1023.8
$$



USA.gov is the U.S. government's official web portal to all federal, state and local government web resources and services.